EZY101E EGPH-LFMN

Flight info

Callsign EZY101E
Flight time 2h 28m
Altitude 37000
Route GOSAM1C GOSAM P600 FENIK L612 ELBUS UL612 HON DCT XAMAB UL612 VEULE DCT KOTAP UM728 KETEX DCT KOTIS DCT KUKOR DCT UTUVA DCT LERGA DCT LIQID DCT LATAM DCT TUNUR DCT NISAR NISAR7T
Aircraft A320/M-SDE3FGHIRWY/LB1

Departure

Time 2026-04-26 09:57
Airport Edinburgh Airport (EGPH)

Arrival

Time 2026-04-26 12:26
Airport Nice-Côte d'Azur Airport (LFMN)
Time Latitude Longitude Altitude Speed Heading
2026-04-26 09:28 55.94750 -3.35490 108 ft 0 kts 209°
2026-04-26 09:47 55.94764 -3.35476 108 ft 3 kts 209°
2026-04-26 09:47 55.94778 -3.35460 106 ft 2 kts 222°
2026-04-26 09:47 55.94788 -3.35438 109 ft 2 kts 245°
2026-04-26 09:48 55.94794 -3.35411 108 ft 2 kts 282°
2026-04-26 09:48 55.94793 -3.35403 108 ft 0 kts 296°
2026-04-26 09:51 55.94793 -3.35404 108 ft 0 kts 296°
2026-04-26 09:51 55.94796 -3.35412 108 ft 3 kts 297°
2026-04-26 09:52 55.94829 -3.35518 108 ft 11 kts 299°
2026-04-26 09:52 55.94898 -3.35744 107 ft 9 kts 298°
2026-04-26 09:52 55.94928 -3.35834 107 ft 8 kts 307°
2026-04-26 09:53 55.94970 -3.35863 107 ft 6 kts
2026-04-26 09:53 55.95017 -3.35830 106 ft 13 kts 32°
2026-04-26 09:53 55.95098 -3.35798 107 ft 12 kts 326°
2026-04-26 09:53 55.95141 -3.35918 105 ft 12 kts 314°
2026-04-26 09:54 55.95230 -3.35978 101 ft 16 kts 13°
2026-04-26 09:54 55.95284 -3.35832 102 ft 14 kts 52°
2026-04-26 09:54 55.95334 -3.35682 102 ft 14 kts 59°
2026-04-26 09:54 55.95381 -3.35548 104 ft 11 kts 57°
2026-04-26 09:55 55.95420 -3.35439 105 ft 10 kts 57°
2026-04-26 09:55 55.95477 -3.35410 101 ft 10 kts 327°
2026-04-26 09:55 55.95493 -3.35432 101 ft 0 kts 325°
2026-04-26 09:56 55.95496 -3.35436 102 ft 4 kts 325°
2026-04-26 09:56 55.95573 -3.35555 102 ft 13 kts 281°
2026-04-26 09:56 55.95548 -3.35626 101 ft 9 kts 241°
2026-04-26 09:56 55.95411 -3.36040 100 ft 76 kts 238°
2026-04-26 09:57 55.95025 -3.37176 107 ft 135 kts 239°
2026-04-26 09:57 55.94491 -3.38770 498 ft 151 kts 239°
2026-04-26 09:57 55.93946 -3.40353 1184 ft 153 kts 237°
2026-04-26 09:57 55.93357 -3.42047 1616 ft 171 kts 237°
2026-04-26 09:58 55.92693 -3.43954 1946 ft 191 kts 237°
2026-04-26 09:58 55.91970 -3.46031 2385 ft 205 kts 237°
2026-04-26 09:58 55.91186 -3.48295 2783 ft 225 kts 238°
2026-04-26 09:58 55.90473 -3.50810 3533 ft 231 kts 253°
2026-04-26 09:59 55.90163 -3.53632 4376 ft 234 kts 259°
2026-04-26 09:59 55.89969 -3.55606 4789 ft 246 kts 259°
2026-04-26 09:59 55.89561 -3.59711 5696 ft 260 kts 259°
2026-04-26 09:59 55.89242 -3.62904 5939 ft 261 kts 259°
2026-04-26 10:00 55.88924 -3.66079 6000 ft 260 kts 259°
2026-04-26 10:00 55.88608 -3.69238 6011 ft 259 kts 259°
2026-04-26 10:00 55.88292 -3.72406 6004 ft 259 kts 259°
2026-04-26 10:00 55.87975 -3.75573 5996 ft 259 kts 259°
2026-04-26 10:01 55.87656 -3.78735 5995 ft 259 kts 259°
2026-04-26 10:01 55.87338 -3.81906 5996 ft 260 kts 259°
2026-04-26 10:01 55.87028 -3.85033 5999 ft 260 kts 259°
2026-04-26 10:01 55.86714 -3.88202 6001 ft 260 kts 259°
2026-04-26 10:02 55.86400 -3.91374 6000 ft 260 kts 259°
2026-04-26 10:02 55.86084 -3.94540 6001 ft 260 kts 259°
2026-04-26 10:02 55.85764 -3.97704 6004 ft 259 kts 259°
2026-04-26 10:02 55.85442 -4.00859 6003 ft 259 kts 259°
2026-04-26 10:03 55.85121 -4.04020 6005 ft 259 kts 259°
2026-04-26 10:03 55.84802 -4.07174 6005 ft 259 kts 259°
2026-04-26 10:03 55.84386 -4.10241 6007 ft 258 kts 249°
2026-04-26 10:03 55.83574 -4.13082 6007 ft 258 kts 235°
2026-04-26 10:04 55.82381 -4.15506 6007 ft 258 kts 221°
2026-04-26 10:04 55.79657 -4.19028 6007 ft 259 kts 216°
2026-04-26 10:04 55.78185 -4.20889 6052 ft 262 kts 216°
2026-04-26 10:05 55.76685 -4.22771 6880 ft 264 kts 216°
2026-04-26 10:05 55.75188 -4.24637 7830 ft 263 kts 216°
2026-04-26 10:05 55.73649 -4.26419 8722 ft 265 kts 207°
2026-04-26 10:05 55.71879 -4.27384 9609 ft 270 kts 188°
2026-04-26 10:06 55.69994 -4.27237 10437 ft 276 kts 170°
2026-04-26 10:06 55.68203 -4.25987 11091 ft 289 kts 155°
2026-04-26 10:06 55.66361 -4.24206 11335 ft 313 kts 154°
2026-04-26 10:06 55.64386 -4.22261 11510 ft 337 kts 154°
2026-04-26 10:07 55.62283 -4.20176 11812 ft 353 kts 153°
2026-04-26 10:07 55.60118 -4.18023 12421 ft 360 kts 153°
2026-04-26 10:07 55.57920 -4.15853 13080 ft 364 kts 154°
2026-04-26 10:07 55.55686 -4.13665 13734 ft 369 kts 154°
2026-04-26 10:08 55.53423 -4.11455 14353 ft 374 kts 154°
2026-04-26 10:08 55.51133 -4.09223 14940 ft 378 kts 154°
2026-04-26 10:08 55.48812 -4.06965 15524 ft 382 kts 154°
2026-04-26 10:08 55.46472 -4.04696 16104 ft 385 kts 154°
2026-04-26 10:09 55.44115 -4.02414 16695 ft 388 kts 154°
2026-04-26 10:09 55.41743 -4.00120 17272 ft 391 kts 154°
2026-04-26 10:09 55.39347 -3.97800 17839 ft 395 kts 154°
2026-04-26 10:09 55.36931 -3.95462 18385 ft 398 kts 154°
2026-04-26 10:10 55.34491 -3.93100 18869 ft 402 kts 155°
2026-04-26 10:10 55.32033 -3.90725 19342 ft 405 kts 155°
2026-04-26 10:10 55.29554 -3.88337 19820 ft 408 kts 155°
2026-04-26 10:10 55.27051 -3.85936 20265 ft 411 kts 154°
2026-04-26 10:11 55.24563 -3.83554 20642 ft 415 kts 154°
2026-04-26 10:11 55.22008 -3.81110 21088 ft 419 kts 154°
2026-04-26 10:11 55.19442 -3.78654 21513 ft 422 kts 154°
2026-04-26 10:11 55.16857 -3.76180 21956 ft 425 kts 154°
2026-04-26 10:12 55.14256 -3.73696 22390 ft 428 kts 154°
2026-04-26 10:12 55.11633 -3.71198 22823 ft 431 kts 154°
2026-04-26 10:12 55.08988 -3.68686 23256 ft 434 kts 154°
2026-04-26 10:12 55.06329 -3.66162 23659 ft 437 kts 154°
2026-04-26 10:13 55.03652 -3.63623 24022 ft 439 kts 154°
2026-04-26 10:13 55.00995 -3.61101 24357 ft 442 kts 155°
2026-04-26 10:13 54.98289 -3.58537 24694 ft 444 kts 155°
2026-04-26 10:13 54.95567 -3.55966 25025 ft 446 kts 155°
2026-04-26 10:14 54.92829 -3.53386 25383 ft 448 kts 155°
2026-04-26 10:14 54.90077 -3.50796 25727 ft 450 kts 155°
2026-04-26 10:14 54.87313 -3.48203 26055 ft 452 kts 155°
2026-04-26 10:14 54.84538 -3.45601 26377 ft 454 kts 155°
2026-04-26 10:15 54.81747 -3.42981 26694 ft 456 kts 155°
2026-04-26 10:15 54.78949 -3.40361 26996 ft 458 kts 155°
2026-04-26 10:15 54.76132 -3.37737 27286 ft 460 kts 156°
2026-04-26 10:15 54.73306 -3.35107 27579 ft 462 kts 156°
2026-04-26 10:16 54.70440 -3.32551 27857 ft 463 kts 158°
2026-04-26 10:16 54.67521 -3.30196 28150 ft 464 kts 160°
2026-04-26 10:16 54.64552 -3.27991 28439 ft 465 kts 162°
2026-04-26 10:16 54.61559 -3.25864 28798 ft 465 kts 162°
2026-04-26 10:17 54.58562 -3.23748 29233 ft 463 kts 162°
2026-04-26 10:17 54.55588 -3.21615 29624 ft 463 kts 162°
2026-04-26 10:17 54.52615 -3.19443 29925 ft 465 kts 162°
2026-04-26 10:17 54.49643 -3.17235 30279 ft 465 kts 161°
2026-04-26 10:18 54.46676 -3.15014 30639 ft 465 kts 161°
2026-04-26 10:18 54.43757 -3.12825 30956 ft 463 kts 161°
2026-04-26 10:18 54.40804 -3.10613 31286 ft 463 kts 161°
2026-04-26 10:18 54.37855 -3.08420 31614 ft 462 kts 161°
2026-04-26 10:19 54.34902 -3.06240 31939 ft 461 kts 161°
2026-04-26 10:19 54.31956 -3.04071 32267 ft 461 kts 161°
2026-04-26 10:19 54.29018 -3.01906 32605 ft 460 kts 161°
2026-04-26 10:19 54.26070 -2.99736 32950 ft 460 kts 161°
2026-04-26 10:20 54.23130 -2.97575 33286 ft 459 kts 161°
2026-04-26 10:20 54.21191 -2.96151 33505 ft 459 kts 161°
2026-04-26 10:20 54.17264 -2.93268 33898 ft 459 kts 161°
2026-04-26 10:20 54.14325 -2.91112 34213 ft 458 kts 161°
2026-04-26 10:21 54.11401 -2.88974 34495 ft 458 kts 161°
2026-04-26 10:21 54.08478 -2.86840 34777 ft 457 kts 161°
2026-04-26 10:21 54.05553 -2.84711 35055 ft 457 kts 161°
2026-04-26 10:21 54.02636 -2.82593 35318 ft 456 kts 161°
2026-04-26 10:22 53.99718 -2.80480 35584 ft 456 kts 161°
2026-04-26 10:22 53.96803 -2.78368 35837 ft 455 kts 161°
2026-04-26 10:22 53.93931 -2.76292 36065 ft 455 kts 161°
2026-04-26 10:22 53.91015 -2.74186 36316 ft 454 kts 161°
2026-04-26 10:23 53.88109 -2.72090 36557 ft 454 kts 161°
2026-04-26 10:23 53.85207 -2.70001 36799 ft 453 kts 161°
2026-04-26 10:23 53.82297 -2.67910 37029 ft 453 kts 161°
2026-04-26 10:23 53.79396 -2.65829 37238 ft 453 kts 161°
2026-04-26 10:24 53.73573 -2.61660 37310 ft 456 kts 161°
2026-04-26 10:24 53.67727 -2.57485 37312 ft 458 kts 161°
2026-04-26 10:25 53.61857 -2.53301 37309 ft 458 kts 161°
2026-04-26 10:25 53.55985 -2.49118 37310 ft 458 kts 161°
2026-04-26 10:26 53.50109 -2.44962 37315 ft 458 kts 161°
2026-04-26 10:26 53.44236 -2.40813 37314 ft 458 kts 161°
2026-04-26 10:27 53.38364 -2.36673 37328 ft 458 kts 161°
2026-04-26 10:27 53.32487 -2.32550 37327 ft 458 kts 161°
2026-04-26 10:28 53.26605 -2.28447 37326 ft 458 kts 161°
2026-04-26 10:28 53.20720 -2.24348 37315 ft 458 kts 161°
2026-04-26 10:29 53.14879 -2.20289 37319 ft 458 kts 161°
2026-04-26 10:29 53.09951 -2.16869 37324 ft 458 kts 161°
2026-04-26 10:30 53.04069 -2.12801 37329 ft 458 kts 161°
2026-04-26 10:30 52.98180 -2.08740 37312 ft 458 kts 161°
2026-04-26 10:31 52.92293 -2.04687 37329 ft 458 kts 161°
2026-04-26 10:31 52.86442 -2.00681 37335 ft 458 kts 161°
2026-04-26 10:32 52.80517 -1.96630 37332 ft 458 kts 161°
2026-04-26 10:32 52.74664 -1.92649 37315 ft 458 kts 161°
2026-04-26 10:33 52.68778 -1.88656 37323 ft 458 kts 161°
2026-04-26 10:33 52.62877 -1.84652 37329 ft 458 kts 161°
2026-04-26 10:34 52.56980 -1.80660 37333 ft 458 kts 161°
2026-04-26 10:34 52.51082 -1.76696 37331 ft 458 kts 161°
2026-04-26 10:35 52.45185 -1.72742 37330 ft 458 kts 161°
2026-04-26 10:35 52.39287 -1.68802 37332 ft 457 kts 161°
2026-04-26 10:36 52.33514 -1.64354 37333 ft 461 kts 153°
2026-04-26 10:36 52.28008 -1.59122 37354 ft 461 kts 153°
2026-04-26 10:37 52.22444 -1.53894 37359 ft 461 kts 153°
2026-04-26 10:37 52.16886 -1.48685 37367 ft 461 kts 153°
2026-04-26 10:38 52.11317 -1.43489 37356 ft 461 kts 153°
2026-04-26 10:38 52.05744 -1.38290 37356 ft 462 kts 153°
2026-04-26 10:39 52.00167 -1.33094 37327 ft 462 kts 153°
2026-04-26 10:39 51.94576 -1.27911 37331 ft 462 kts 153°
2026-04-26 10:40 51.89444 -1.23160 37337 ft 463 kts 153°
2026-04-26 10:40 51.83698 -1.17861 37339 ft 463 kts 153°
2026-04-26 10:41 51.78144 -1.12748 37321 ft 462 kts 153°
2026-04-26 10:41 51.72549 -1.07613 37326 ft 462 kts 153°
2026-04-26 10:42 51.66948 -1.02492 37329 ft 462 kts 153°
2026-04-26 10:42 51.61346 -0.97391 37331 ft 462 kts 154°
2026-04-26 10:43 51.55734 -0.92356 37316 ft 462 kts 159°
2026-04-26 10:43 51.53849 -0.90792 37336 ft 461 kts 160°
2026-04-26 10:44 51.50795 -0.88299 37247 ft 462 kts 156°
2026-04-26 10:45 51.50008 -0.87698 37308 ft 457 kts 158°
2026-04-26 10:46 51.44347 -0.82911 37319 ft 463 kts 150°
2026-04-26 10:46 51.38919 -0.77301 37314 ft 464 kts 150°
2026-04-26 10:47 51.33399 -0.71947 37316 ft 464 kts 153°
2026-04-26 10:47 51.27755 -0.66933 37314 ft 464 kts 154°
2026-04-26 10:48 51.22089 -0.62003 37313 ft 464 kts 154°
2026-04-26 10:48 51.16443 -0.57014 37316 ft 464 kts 153°
2026-04-26 10:49 51.10802 -0.51977 37321 ft 465 kts 153°
2026-04-26 10:49 51.05161 -0.46951 37327 ft 465 kts 153°
2026-04-26 10:50 51.00464 -0.42797 37327 ft 465 kts 154°
2026-04-26 10:50 50.93888 -0.37007 37332 ft 465 kts 154°
2026-04-26 10:51 50.85393 -0.29550 37326 ft 465 kts 154°
2026-04-26 10:52 50.79727 -0.24594 37332 ft 465 kts 154°
2026-04-26 10:52 50.74064 -0.19644 37332 ft 465 kts 154°
2026-04-26 10:53 50.68429 -0.14739 37332 ft 465 kts 154°
2026-04-26 10:53 50.62762 -0.09830 37318 ft 465 kts 154°
2026-04-26 10:54 50.54247 -0.02457 37321 ft 466 kts 154°
2026-04-26 10:54 50.48557 0.02443 37322 ft 466 kts 154°
2026-04-26 10:55 50.42861 0.07340 37321 ft 467 kts 154°
2026-04-26 10:55 50.37156 0.12230 37315 ft 468 kts 154°
2026-04-26 10:56 50.31483 0.17085 37320 ft 468 kts 154°
2026-04-26 10:56 50.25758 0.21954 37324 ft 468 kts 154°
2026-04-26 10:57 50.20043 0.26821 37322 ft 468 kts 152°
2026-04-26 10:57 50.14507 0.32212 37313 ft 470 kts 148°
2026-04-26 10:58 50.09126 0.37985 37316 ft 470 kts 147°
2026-04-26 10:58 50.03953 0.43463 37311 ft 469 kts 148°
2026-04-26 10:59 49.98485 0.49049 37309 ft 469 kts 149°
2026-04-26 10:59 49.93000 0.54573 37291 ft 470 kts 149°
2026-04-26 11:00 49.87523 0.60104 37286 ft 470 kts 148°
2026-04-26 11:00 49.82089 0.65746 37287 ft 470 kts 146°
2026-04-26 11:01 49.76784 0.71694 37281 ft 471 kts 145°
2026-04-26 11:01 49.71521 0.77649 37269 ft 471 kts 146°
2026-04-26 11:02 49.66207 0.83557 37274 ft 471 kts 146°
2026-04-26 11:02 49.60866 0.89418 37276 ft 471 kts 146°
2026-04-26 11:03 49.55504 0.95255 37293 ft 472 kts 146°
2026-04-26 11:03 49.50149 1.01096 37281 ft 472 kts 146°
2026-04-26 11:04 49.44785 1.06936 37291 ft 472 kts 146°
2026-04-26 11:04 49.39417 1.12763 37297 ft 472 kts 146°
2026-04-26 11:05 49.34051 1.18590 37296 ft 473 kts 146°
2026-04-26 11:05 49.28685 1.24384 37284 ft 472 kts 146°
2026-04-26 11:06 49.24216 1.29199 37289 ft 472 kts 146°
2026-04-26 11:06 49.17965 1.35919 37272 ft 472 kts 146°
2026-04-26 11:07 49.12583 1.41693 37266 ft 473 kts 146°
2026-04-26 11:07 49.07188 1.47465 37235 ft 473 kts 146°
2026-04-26 11:08 49.01788 1.53205 37253 ft 473 kts 146°
2026-04-26 11:08 48.96388 1.58941 37262 ft 473 kts 146°
2026-04-26 11:09 48.90989 1.64667 37272 ft 473 kts 146°
2026-04-26 11:09 48.85588 1.70385 37279 ft 473 kts 146°
2026-04-26 11:10 48.80186 1.76100 37280 ft 473 kts 146°
2026-04-26 11:10 48.74771 1.81788 37271 ft 474 kts 146°
2026-04-26 11:11 48.69337 1.87477 37271 ft 474 kts 146°
2026-04-26 11:11 48.63938 1.93114 37279 ft 474 kts 146°
2026-04-26 11:12 48.58477 1.98823 37273 ft 474 kts 146°
2026-04-26 11:12 48.53076 2.04460 37270 ft 475 kts 146°
2026-04-26 11:13 48.47637 2.10103 37260 ft 474 kts 146°
2026-04-26 11:13 48.42188 2.15730 37266 ft 474 kts 146°
2026-04-26 11:14 48.36743 2.21345 37251 ft 474 kts 146°
2026-04-26 11:14 48.32218 2.26002 37250 ft 474 kts 146°
2026-04-26 11:15 48.25384 2.31162 37238 ft 470 kts 165°
2026-04-26 11:15 48.19108 2.33668 37227 ft 470 kts 167°
2026-04-26 11:16 48.12789 2.36187 37234 ft 470 kts 166°
2026-04-26 11:16 48.06526 2.39118 37239 ft 472 kts 162°
2026-04-26 11:17 48.00327 2.42358 37241 ft 472 kts 162°
2026-04-26 11:17 47.94125 2.45559 37249 ft 472 kts 162°
2026-04-26 11:18 47.87890 2.48645 37252 ft 472 kts 163°
2026-04-26 11:18 47.81653 2.51693 37245 ft 472 kts 163°
2026-04-26 11:19 47.75419 2.54750 37237 ft 472 kts 162°
2026-04-26 11:19 47.69190 2.57806 37244 ft 471 kts 162°
2026-04-26 11:20 47.64010 2.60347 37239 ft 471 kts 162°
2026-04-26 11:20 47.57782 2.63394 37233 ft 471 kts 162°
2026-04-26 11:21 47.50547 2.66927 37230 ft 471 kts 162°
2026-04-26 11:21 47.45330 2.69458 37235 ft 471 kts 162°
2026-04-26 11:22 47.39143 2.72452 37222 ft 471 kts 162°
2026-04-26 11:22 47.32918 2.75472 37208 ft 471 kts 162°
2026-04-26 11:23 47.26691 2.78468 37211 ft 471 kts 162°
2026-04-26 11:23 47.20462 2.81474 37213 ft 471 kts 162°
2026-04-26 11:24 47.14228 2.84472 37207 ft 471 kts 162°
2026-04-26 11:24 47.07990 2.87453 37223 ft 472 kts 162°
2026-04-26 11:25 47.01751 2.90426 37240 ft 471 kts 162°
2026-04-26 11:25 46.95520 2.93397 37238 ft 471 kts 162°
2026-04-26 11:26 46.89296 2.96350 37237 ft 470 kts 162°
2026-04-26 11:26 46.83078 2.99297 37235 ft 469 kts 162°
2026-04-26 11:27 46.76865 3.02244 37228 ft 469 kts 162°
2026-04-26 11:27 46.70656 3.05172 37222 ft 469 kts 162°
2026-04-26 11:28 46.64448 3.08094 37215 ft 469 kts 162°
2026-04-26 11:28 46.58245 3.11013 37211 ft 469 kts 162°
2026-04-26 11:29 46.52095 3.13940 37207 ft 468 kts 161°
2026-04-26 11:29 46.45969 3.17194 37206 ft 468 kts 159°
2026-04-26 11:30 46.40915 3.20017 37212 ft 468 kts 159°
2026-04-26 11:30 46.33799 3.23935 37230 ft 467 kts 160°
2026-04-26 11:31 46.27696 3.27188 37234 ft 467 kts 160°
2026-04-26 11:31 46.21594 3.30414 37238 ft 466 kts 160°
2026-04-26 11:32 46.15503 3.33656 37241 ft 466 kts 160°
2026-04-26 11:32 46.09461 3.36879 37233 ft 466 kts 160°
2026-04-26 11:33 46.03377 3.40102 37232 ft 465 kts 160°
2026-04-26 11:33 45.97301 3.43313 37231 ft 465 kts 160°
2026-04-26 11:34 45.91228 3.46522 37223 ft 465 kts 160°
2026-04-26 11:34 45.85152 3.49701 37223 ft 464 kts 161°
2026-04-26 11:35 45.78994 3.52482 37224 ft 464 kts 164°
2026-04-26 11:35 45.72787 3.55010 37219 ft 463 kts 165°
2026-04-26 11:36 45.66591 3.57572 37202 ft 463 kts 164°
2026-04-26 11:36 45.60408 3.60224 37199 ft 463 kts 163°
2026-04-26 11:37 45.54279 3.62876 37198 ft 463 kts 163°
2026-04-26 11:37 45.48108 3.65524 37200 ft 463 kts 164°
2026-04-26 11:38 45.41944 3.68145 37198 ft 462 kts 164°
2026-04-26 11:38 45.35782 3.70753 37188 ft 462 kts 164°
2026-04-26 11:39 45.29709 3.73697 37183 ft 462 kts 154°
2026-04-26 11:39 45.24485 3.78949 37214 ft 462 kts 134°
2026-04-26 11:40 45.20647 3.86232 37215 ft 461 kts 123°
2026-04-26 11:40 45.17174 3.93878 37213 ft 462 kts 123°
2026-04-26 11:42 45.03071 4.24323 37161 ft 462 kts 131°
2026-04-26 11:43 44.98758 4.31046 37145 ft 462 kts 134°
2026-04-26 11:43 44.94433 4.37684 37147 ft 462 kts 134°
2026-04-26 11:44 44.90077 4.44360 37134 ft 462 kts 134°
2026-04-26 11:44 44.85723 4.51034 37140 ft 462 kts 134°
2026-04-26 11:45 44.81357 4.57700 37128 ft 462 kts 135°
2026-04-26 11:45 44.76981 4.64356 37128 ft 463 kts 135°
2026-04-26 11:46 44.72597 4.71009 37132 ft 463 kts 135°
2026-04-26 11:46 44.68213 4.77647 37127 ft 464 kts 135°
2026-04-26 11:47 44.63822 4.84289 37124 ft 464 kts 135°
2026-04-26 11:47 44.59512 4.91044 37119 ft 465 kts 133°
2026-04-26 11:48 44.55290 4.97896 36681 ft 461 kts 132°
2026-04-26 11:48 44.53230 5.01234 35486 ft 457 kts 133°
2026-04-26 11:48 44.51072 5.04496 34099 ft 455 kts 140°
2026-04-26 11:49 44.48587 5.07264 32840 ft 458 kts 149°
2026-04-26 11:49 44.45829 5.09482 32047 ft 456 kts 157°
2026-04-26 11:49 44.42952 5.11340 31205 ft 456 kts 158°
2026-04-26 11:49 44.40064 5.13199 30324 ft 457 kts 158°
2026-04-26 11:50 44.37171 5.15069 29313 ft 459 kts 158°
2026-04-26 11:50 44.34267 5.16944 28239 ft 461 kts 157°
2026-04-26 11:50 44.31345 5.18822 27459 ft 463 kts 157°
2026-04-26 11:50 44.28401 5.20704 27173 ft 466 kts 158°
2026-04-26 11:51 44.25448 5.22588 26908 ft 467 kts 158°
2026-04-26 11:51 44.22487 5.24476 26655 ft 469 kts 158°
2026-04-26 11:51 44.19517 5.26367 26401 ft 469 kts 158°
2026-04-26 11:51 44.16595 5.28225 26152 ft 468 kts 157°
2026-04-26 11:52 44.13638 5.30108 25911 ft 466 kts 157°
2026-04-26 11:52 44.11647 5.31375 25738 ft 466 kts 157°
2026-04-26 11:52 44.07754 5.33851 25416 ft 465 kts 158°
2026-04-26 11:52 44.04811 5.35717 25178 ft 464 kts 158°
2026-04-26 11:53 44.01880 5.37584 24936 ft 463 kts 156°
2026-04-26 11:53 43.99108 5.39839 24694 ft 457 kts 146°
2026-04-26 11:53 43.96695 5.42594 24458 ft 443 kts 137°
2026-04-26 11:54 43.92835 5.49140 24000 ft 436 kts 128°
2026-04-26 11:54 43.91023 5.52501 23775 ft 434 kts 128°
2026-04-26 11:54 43.89212 5.55845 23455 ft 433 kts 128°
2026-04-26 11:54 43.87409 5.59173 23000 ft 428 kts 128°
2026-04-26 11:55 43.85649 5.62420 22564 ft 425 kts 128°
2026-04-26 11:55 43.83877 5.65679 22125 ft 422 kts 128°
2026-04-26 11:55 43.82114 5.68912 21684 ft 419 kts 128°
2026-04-26 11:55 43.80367 5.72122 21247 ft 416 kts 128°
2026-04-26 11:56 43.78603 5.75364 20827 ft 427 kts 128°
2026-04-26 11:56 43.76828 5.78627 20395 ft 420 kts 128°
2026-04-26 11:56 43.75089 5.81821 19949 ft 412 kts 128°
2026-04-26 11:56 43.73379 5.84955 19537 ft 404 kts 128°
2026-04-26 11:57 43.71699 5.88029 19125 ft 398 kts 129°
2026-04-26 11:57 43.70044 5.91053 18712 ft 392 kts 128°
2026-04-26 11:57 43.68412 5.94036 18297 ft 386 kts 129°
2026-04-26 11:57 43.66802 5.96975 17879 ft 380 kts 128°
2026-04-26 11:58 43.65219 5.99862 17493 ft 374 kts 128°
2026-04-26 11:58 43.63658 6.02703 17106 ft 368 kts 128°
2026-04-26 11:58 43.62119 6.05499 16724 ft 363 kts 128°
2026-04-26 11:58 43.60612 6.08269 16357 ft 359 kts 126°
2026-04-26 11:59 43.59350 6.11211 15963 ft 355 kts 116°
2026-04-26 11:59 43.58396 6.14376 15056 ft 356 kts 110°
2026-04-26 11:59 43.57555 6.17485 14189 ft 349 kts 110°
2026-04-26 11:59 43.56693 6.20648 13339 ft 340 kts 110°
2026-04-26 12:00 43.55886 6.23584 13112 ft 314 kts 110°
2026-04-26 12:00 43.55142 6.26280 12992 ft 288 kts 110°
2026-04-26 12:00 43.54456 6.28761 12872 ft 266 kts 110°
2026-04-26 12:00 43.53815 6.31081 12761 ft 255 kts 110°
2026-04-26 12:01 43.53194 6.33321 12658 ft 255 kts 110°
2026-04-26 12:01 43.52528 6.35718 12543 ft 279 kts 110°
2026-04-26 12:01 43.51820 6.38257 12409 ft 283 kts 110°
2026-04-26 12:01 43.51136 6.40715 12282 ft 264 kts 110°
2026-04-26 12:02 43.50394 6.42951 12175 ft 252 kts 120°
2026-04-26 12:02 43.49750 6.44278 12028 ft 253 kts 127°
2026-04-26 12:02 43.48174 6.46631 11545 ft 248 kts 132°
2026-04-26 12:02 43.46983 6.48336 11203 ft 246 kts 131°
2026-04-26 12:03 43.45802 6.50035 10876 ft 247 kts 132°
2026-04-26 12:03 43.44609 6.51750 10533 ft 249 kts 131°
2026-04-26 12:03 43.43409 6.53482 10200 ft 251 kts 131°
2026-04-26 12:03 43.42199 6.55227 9838 ft 252 kts 131°
2026-04-26 12:04 43.40985 6.56974 9473 ft 253 kts 131°
2026-04-26 12:04 43.39948 6.58906 9126 ft 250 kts 116°
2026-04-26 12:04 43.39348 6.61131 8787 ft 248 kts 100°
2026-04-26 12:04 43.39213 6.63443 8465 ft 245 kts 85°
2026-04-26 12:05 43.39533 6.65731 8142 ft 243 kts 73°
2026-04-26 12:05 43.40014 6.67955 7809 ft 242 kts 73°
2026-04-26 12:05 43.40483 6.70169 7491 ft 240 kts 74°
2026-04-26 12:05 43.40947 6.72372 7172 ft 239 kts 74°
2026-04-26 12:06 43.41410 6.74559 6852 ft 237 kts 74°
2026-04-26 12:06 43.41804 6.76750 6528 ft 235 kts 85°
2026-04-26 12:06 43.41818 6.78985 6197 ft 233 kts 92°
2026-04-26 12:06 43.41761 6.81212 5864 ft 232 kts 92°
2026-04-26 12:07 43.41691 6.83427 5534 ft 231 kts 93°
2026-04-26 12:07 43.41602 6.85633 5207 ft 231 kts 94°
2026-04-26 12:07 43.41511 6.87836 4891 ft 231 kts 95°
2026-04-26 12:07 43.41419 6.90051 4560 ft 233 kts 95°
2026-04-26 12:08 43.41327 6.92281 4226 ft 234 kts 94°
2026-04-26 12:08 43.41517 6.94496 3894 ft 235 kts 74°
2026-04-26 12:08 43.41978 6.96661 3561 ft 236 kts 74°
2026-04-26 12:08 43.42437 6.98787 3232 ft 234 kts 73°
2026-04-26 12:09 43.42901 7.00917 2995 ft 228 kts 73°
2026-04-26 12:09 43.43340 7.02934 2966 ft 211 kts 73°
2026-04-26 12:09 43.43744 7.04796 2968 ft 197 kts 73°
2026-04-26 12:09 43.44131 7.06575 2976 ft 192 kts 73°
2026-04-26 12:10 43.44511 7.08328 2983 ft 191 kts 73°
2026-04-26 12:10 43.44878 7.10028 3004 ft 177 kts 73°
2026-04-26 12:10 43.45212 7.11583 2973 ft 162 kts 73°
2026-04-26 12:10 43.45518 7.13007 2968 ft 149 kts 73°
2026-04-26 12:11 43.45719 7.13903 2966 ft 148 kts 68°
2026-04-26 12:11 43.46260 7.15078 2978 ft 145 kts 46°
2026-04-26 12:11 43.47095 7.15877 2996 ft 154 kts 25°
2026-04-26 12:11 43.48188 7.16173 2997 ft 167 kts
2026-04-26 12:12 43.49368 7.16051 2983 ft 171 kts 359°
2026-04-26 12:12 43.50561 7.15930 2985 ft 172 kts 358°
2026-04-26 12:12 43.51756 7.15813 2986 ft 172 kts 358°
2026-04-26 12:12 43.52547 7.15738 2974 ft 172 kts 358°
2026-04-26 12:13 43.54146 7.15586 2982 ft 172 kts 358°
2026-04-26 12:13 43.55338 7.15472 2980 ft 171 kts 357°
2026-04-26 12:13 43.56530 7.15384 2983 ft 171 kts 360°
2026-04-26 12:13 43.57721 7.15302 2972 ft 172 kts 358°
2026-04-26 12:14 43.58910 7.15255 2984 ft 171 kts
2026-04-26 12:14 43.60032 7.15710 3012 ft 168 kts 26°
2026-04-26 12:14 43.61046 7.16517 2999 ft 170 kts 38°
2026-04-26 12:14 43.62030 7.17437 3000 ft 172 kts 34°
2026-04-26 12:15 43.63035 7.18330 3013 ft 171 kts 36°
2026-04-26 12:15 43.63739 7.19568 3004 ft 168 kts 76°
2026-04-26 12:15 43.63625 7.21106 3013 ft 168 kts 118°
2026-04-26 12:15 43.62922 7.22394 3022 ft 168 kts 130°
2026-04-26 12:16 43.62123 7.23555 2968 ft 169 kts 133°
2026-04-26 12:16 43.61301 7.24740 2903 ft 173 kts 134°
2026-04-26 12:16 43.60395 7.25830 2845 ft 172 kts 153°
2026-04-26 12:16 43.59284 7.26454 2841 ft 173 kts 162°
2026-04-26 12:17 43.58140 7.26969 2833 ft 173 kts 163°
2026-04-26 12:17 43.56991 7.27467 2830 ft 173 kts 163°
2026-04-26 12:17 43.55842 7.27962 2829 ft 173 kts 163°
2026-04-26 12:17 43.54693 7.28456 2828 ft 173 kts 163°
2026-04-26 12:18 43.53545 7.28948 2828 ft 173 kts 165°
2026-04-26 12:18 43.52388 7.29404 2828 ft 174 kts 164°
2026-04-26 12:18 43.51159 7.29922 2841 ft 198 kts 163°
2026-04-26 12:18 43.49789 7.30329 2819 ft 204 kts 182°
2026-04-26 12:19 43.48454 7.29739 2830 ft 204 kts 209°
2026-04-26 12:19 43.47237 7.28732 2826 ft 204 kts 213°
2026-04-26 12:19 43.46040 7.27679 2825 ft 204 kts 213°
2026-04-26 12:19 43.44847 7.26623 2828 ft 204 kts 213°
2026-04-26 12:20 43.43824 7.25339 2822 ft 200 kts 237°
2026-04-26 12:20 43.43385 7.23564 2826 ft 197 kts 267°
2026-04-26 12:20 43.43659 7.21744 2825 ft 193 kts 297°
2026-04-26 12:20 43.44377 7.20212 2828 ft 189 kts 303°
2026-04-26 12:21 43.45099 7.18715 2826 ft 187 kts 303°
2026-04-26 12:21 43.45822 7.17230 2825 ft 186 kts 307°
2026-04-26 12:21 43.46740 7.15979 2824 ft 187 kts 324°
2026-04-26 12:21 43.47937 7.15319 2827 ft 187 kts 349°
2026-04-26 12:22 43.49216 7.15102 2824 ft 179 kts 354°
2026-04-26 12:22 43.50431 7.14973 2699 ft 173 kts 357°
2026-04-26 12:22 43.51632 7.14933 2489 ft 170 kts 359°
2026-04-26 12:22 43.52801 7.14937 2403 ft 167 kts
2026-04-26 12:23 43.53959 7.15076 2258 ft 166 kts
2026-04-26 12:23 43.55104 7.15279 2076 ft 166 kts
2026-04-26 12:23 43.56246 7.15473 1839 ft 165 kts
2026-04-26 12:23 43.57384 7.15630 1637 ft 164 kts
2026-04-26 12:24 43.58521 7.15752 1437 ft 163 kts
2026-04-26 12:24 43.59651 7.15867 1184 ft 163 kts
2026-04-26 12:24 43.60775 7.16019 967 ft 163 kts 11°
2026-04-26 12:25 43.62806 7.17204 514 ft 155 kts 37°
2026-04-26 12:25 43.63613 7.18256 458 ft 161 kts 44°
2026-04-26 12:25 43.64377 7.19299 310 ft 151 kts 44°
2026-04-26 12:25 43.65120 7.20323 111 ft 152 kts 45°
2026-04-26 12:26 43.65808 7.21271 23 ft 105 kts 44°
2026-04-26 12:26 43.65989 7.21513 21 ft 0 kts 41°